This is the latest recevied weather packets stored in our database for station/object KG4GJX. If no packets are shown the sender has not sent any weather packets the latest 10 day(s).
| Time | Temp. | Humidity | Pressure | Rain* | Wind** | Luminosity | Snow |
|---|---|---|---|---|---|---|---|
| 1777928594 | 25.56° C | 46% | 1012.8 hPa | 0 mm | - | - | - |
| 1777927932 | 26.11° C | 44% | 1012.8 hPa | 0 mm | - | - | - |
| 1777927270 | 26.11° C | 46% | 1013.2 hPa | 0 mm | - | - | - |
| 1777926608 | 26.11° C | 46% | 1013.2 hPa | 0 mm | - | - | - |
| 1777925945 | 26.11° C | 44% | 1013.2 hPa | 0 mm | - | - | - |
| 1777925283 | 26.67° C | 45% | 1013.2 hPa | 0 mm | - | - | - |
| 1777924621 | 26.67° C | 45% | 1013.2 hPa | 0 mm | - | - | - |
| 1777923958 | 26.11° C | 46% | 1013.5 hPa | 0 mm | - | - | - |
| 1777923296 | 26.11° C | 45% | 1013.5 hPa | 0 mm | - | - | - |
| 1777922633 | 26.11° C | 46% | 1013.5 hPa | 0 mm | - | - | - |
| 1777921971 | 26.67° C | 46% | 1013.8 hPa | 0 mm | - | - | - |
| 1777921309 | 26.11° C | 47% | 1014.2 hPa | 0 mm | - | - | - |
| 1777920646 | 25.56° C | 46% | 1014.2 hPa | 0 mm | - | - | - |
| 1777919984 | 25° C | 46% | 1014.5 hPa | 0 mm | - | - | - |
| 1777919321 | 25.56° C | 48% | 1014.5 hPa | 0 mm | - | - | - |
| 1777918659 | 25° C | 49% | 1014.5 hPa | 0 mm | - | - | - |
| 1777917996 | 25.56° C | 46% | 1014.5 hPa | 0 mm | - | - | - |
| 1777917334 | 25.56° C | 48% | 1014.9 hPa | 0 mm | - | - | - |
| 1777916672 | 25° C | 49% | 1014.9 hPa | 0 mm | - | - | - |
| 1777916009 | 24.44° C | 49% | 1015.2 hPa | 0 mm | - | - | - |
| 1777915347 | 24.44° C | 47% | 1015.2 hPa | 0 mm | - | - | - |
| 1777914685 | 24.44° C | 50% | 1015.2 hPa | 0 mm | - | - | - |
| 1777914022 | 23.89° C | 51% | 1015.5 hPa | 0 mm | - | - | - |
| 1777913360 | 23.89° C | 49% | 1015.5 hPa | 0 mm | - | - | - |
| 1777912698 | 23.89° C | 51% | 1015.9 hPa | 0 mm | - | - | - |
* Rain latest hour (hover to see other rain measurements)
** Current wind speed in m/s (hover to see current wind gust speed)